Location: Oroua River
(40.4333°S, 175.4333°E)
Time: 14:00:48
(UTC+00:00)

Meteor 1-21 - Pass Details

Date: 03 February 2023
Orbit: 844 x 887 km, 81.2° (Epoch: 22 March)

Event Time Altitude Azimuth Distance (km) Brightness Sun altitude
Exits shadow 14:59:16 47° 4° (N) 1,115 4.5 -23.6°
Maximum altitude 15:00:57 80° 83° (E) 871 4.2 -23.4°
Drops below altitude 10° 15:06:38 10° 168° (SSE) 2,501 7.5 -22.7°
Sets 15:09:04 0° 169° (S) 3,446 8.4 -22.4°
